SCP
1 0 0 0 0 0 0 0 0 0 0 0 0 0 0 0 0 0 0 0 0 0 0 0 1 1 1 1 0 0 0 0 0 0 0 0 1 1 1 1 1 1 1 1 1 1 1 1 1
0 0 0 0 0 0 0 0 0 0 0 0 0 0 0 0 0 0 0 0 0 0 0 0 1 1 1 1 0 0 0 0 0 0 0 0 1 1 1 1 1 1 1 1 1 1 1 1 1
0 0 0 0 0 0 0 0 0 0 0 0 0 0 0 0 0 0 0 0 0 0 0 0 1 1 1 1 0 0 0 0 0 0 0 0 1 1 1 1 1 1 1 1 1 1 1 2 2
0 0 0 0 0 0 0 0 0 0 0 0 0 0 0 0 0 0 0 0 0 0 0 0 1 1 1 0 0 0 0 0 0 0 1 1 1 1 1 1 1 1 1 1 1 1 1 2 2
0 0 0 0 0 0 0 0 0 0 0 0 0 0 0 0 0 0 0 0 0 0 0 0 1 1 1 0 0 0 0 0 0 0 1 1 1 1 1 1 1 1 1 1 1 1 2 2 2
0 0 0 0 0 0 0 0 0 0 0 0 0 0 0 0 0 0 0 0 0 0 0 0 1 1 0 0 0 0 0 0 0 0 1 1 1 0 0 0 1 1 1 1 1 1 2 2 2
0 0 0 0 0 0 0 0 0 0 0 0 0 0 0 0 1 1 1 1 0 0 0 0 0 0 0 0 0 0 0 0 0 0 0 0 0 0 0 0 0 0 0 0 1 1 1 2 2
0 0 0 0 0 0 0 0 0 0 0 0 0 0 0 0 1 1 1 1 1 0 0 0 0 0 0 0 0 0 1 1 0 0 0 0 0 0 0 0 0 0 0 0 1 1 1 1 1
0 0 0 0 0 0 0 0 0 0 0 0 0 0 0 0 1 1 1 1 1 1 0 0 0 0 0 0 0 0 0 0 0 0 0 0 0 0 0 0 0 0 0 1 1 1 1 1 1
0 0 0 0 0 0 0 0 0 0 0 0 0 0 0 0 1 1 1 1 1 1 0 0 0 0 0 0 0 0 0 0 0 0 0 0 0 0 0 1 1 0 1 1 1 1 1 1 1
0 0 0 0 0 0 0 0 0 0 0 0 0 0 0 1 1 1 1 1 1 1 1 0 0 0 0 0 0 0 0 0 0 1 1 1 0 1 1 1 1 1 1 1 1 1 1 1 1
0 0 0 0 0 0 0 0 0 0 0 0 0 1 1 1 1 1 1 1 1 1 1 0 1 1 1 0 0 0 0 0 0 1 1 1 1 1 1 1 1 1 1 1 1 1 1 1 1
0 0 0 0 0 0 0 0 0 0 0 0 1 1 1 0 0 1 1 1 1 1 1 1 1 1 1 0 0 0 0 0 0 0 0 1 1 1 1 1 1 1 1 1 1 1 1 1 1
0 0 0 0 0 0 0 0 0 0 0 0 1 1 1 1 1 1 1 1 1 1 1 1 1 1 1 1 0 0 0 0 0 0 0 0 0 1 1 1 1 1 1 1 1 1 1 1 1
0 0 0 0 0 0 0 0 0 0 0 0 0 1 1 1 1 1 1 1 1 1 1 1 1 1 1 1 1 1 1 0 0 0 0 0 0 0 1 1 1 1 1 1 1 1 1 1 1
0 0 0 0 0 0 0 0 0 0 0 0 0 1 1 1 1 1 1 1 1 1 1 1 1 1 1 1 1 1 1 1 0 0 0 0 0 0 0 0 1 1 1 1 1 2 2 2 2
0 0 0 0 0 0 0 0 0 0 0 0 0 0 1 1 1 1 1 1 1 1 2 2 2 1 1 1 1 1 1 1 1 1 0 0 0 0 0 0 0 1 1 1 1 2 2 2 2
0 0 0 0 0 0 0 0 0 0 0 0 0 0 1 1 1 1 1 1 1 1 2 2 2 2 1 1 1 2 1 1 1 1 1 1 1 1 1 0 0 0 1 1 1 2 2 2 2
0 0 0 0 0 0 0 0 0 0 0 0 0 0 1 1 0 0 1 1 1 2 2 2 2 2 1 1 2 2 2 2 2 1 1 1 1 1 1 1 1 1 1 1 1 1 2 2 2
0 0 0 0 0 0 0 0 0 0 0 0 0 0 1 1 0 0 0 0 1 2 2 2 2 2 2 2 2 3 3 3 2 1 1 1 1 1 1 1 1 1 1 1 1 1 2 2 2
0 0 0 0 0 0 0 0 0 0 0 0 0 0 0 0 0 0 0 1 1 2 3 3 3 2 2 2 2 3 3 2 2 1 1 1 1 1 1 1 1 1 1 1 1 1 2 2 2
0 0 0 0 0 0 0 0 0 0 0 0 0 0 0 0 0 0 0 1 1 2 2 3 3 3 3 2 3 3 2 2 1 1 1 2 1 1 1 1 1 1 1 1 1 2 2 2 2
0 0 0 0 0 0 0 0 0 0 0 0 0 0 0 0 0 0 0 1 1 1 2 2 3 3 3 3 3 3 2 2 1 1 2 2 2 2 1 1 1 1 1 1 2 2 2 2 2
0 0 0 0 0 0 0 0 0 0 0 0 0 0 0 0 0 0 0 1 1 1 1 1 2 3 3 3 3 2 2 2 2 1 2 2 2 2 1 1 1 1 1 1 2 2 2 2 2
0 0 0 0 0 0 0 0 0 0 0 0 0 0 0 0 0 0 0 1 1 1 1 1 1 2 3 3 3 2 2 2 2 2 2 2 2 2 2 1 1 1 1 1 1 1 1 1 2
0 0 0 0 0 0 0 0 0 0 0 0 0 0 0 0 0 0 0 1 1 1 1 1 1 2 2 3 3 3 2 2 2 2 2 2 2 2 2 1 1 1 1 1 1 1 1 1 2
0 0 0 0 0 0 0 0 0 0 0 0 0 0 0 0 0 0 0 1 1 1 1 1 2 2 3 3 3 3 3 2 2 2 1 1 2 2 1 1 1 1 1 1 1 1 1 1 2
0 0 0 0 0 0 0 0 0 0 0 0 0 0 0 0 0 0 0 1 1 1 1 2 2 3 3 3 3 3 3 3 2 1 1 1 2 2 1 1 1 1 1 1 1 1 1 1 1
0 0 0 0 0 0 0 0 0 0 0 0 0 0 0 0 0 0 0 1 1 1 1 1 2 2 2 3 3 3 3 2 1 1 1 1 2 2 2 1 1 1 1 1 1 1 1 1 1
0 0 0 0 0 0 0 0 0 0 0 0 0 0 0 0 1 1 0 1 1 1 1 1 1 2 2 2 3 2 2 1 1 1 1 1 2 2 2 1 1 1 1 1 1 1 1 0 0
Wind_Speed
2 1 2 2 2 4 8 7 5 5 5 6 6 6 7 8 6 6 3 3 3 3 4 6 7 7 8 8 8 9 9 9 9 9 9 9 9 9 9 8 8 8 7 7 7 7 6 6 6
1 1 2 2 1 6 8 6 7 7 6 5 6 6 7 8 6 5 3 4 3 4 5 7 7 7 7 8 8 9 9 9 9 9 9 9 9 9 10 10 9 9 8 7 7 7 7 7 7
1 2 1 0 3 6 8 6 7 7 5 3 5 6 6 6 5 4 4 4 5 5 5 8 7 7 8 8 9 9 9 10 10 10 10 9 9 9 10 10 10 9 9 8 7 7 7 7 7
2 1 1 4 10 8 7 7 6 7 5 4 5 7 6 6 4 5 5 5 7 6 6 9 8 8 8 8 9 9 10 10 10 10 10 9 10 10 10 9 9 9 9 8 7 7 7 7 7
1 1 4 7 9 7 6 6 4 5 5 5 5 8 7 6 6 6 6 7 7 7 6 8 8 8 8 8 9 9 10 10 9 9 10 10 9 10 9 9 9 9 8 8 7 6 7 7 7
1 1 5 7 8 7 6 4 4 6 7 6 6 7 7 5 5 6 6 6 6 6 6 7 8 7 8 8 8 8 9 9 9 9 9 9 9 10 10 10 9 9 9 8 7 6 7 7 7
1 2 5 8 8 6 5 3 3 5 6 4 2 6 7 6 5 5 6 6 6 6 5 5 6 6 7 7 8 8 8 9 9 9 9 9 9 9 9 9 9 9 9 9 7 7 7 6 7
1 3 7 6 7 6 5 4 3 3 5 4 1 3 5 6 5 5 5 5 5 5 4 4 5 4 4 6 7 7 7 7 8 8 8 7 6 7 7 8 9 9 9 9 9 7 7 6 6
1 3 5 5 5 6 5 4 4 2 4 4 3 4 6 7 7 6 5 5 5 4 3 4 4 4 4 4 5 4 5 5 4 5 6 3 4 5 4 9 9 9 8 8 9 8 6 5 6
1 3 4 4 4 5 5 4 4 4 4 4 5 6 7 7 7 6 5 4 4 3 3 2 3 3 3 3 3 2 3 3 3 4 4 3 4 5 5 7 7 8 7 7 7 6 3 2 4
3 4 5 4 4 5 5 3 2 3 2 2 3 6 7 7 6 5 4 3 3 2 2 2 2 2 3 2 2 2 2 2 3 4 5 3 3 3 3 3 3 4 3 4 4 2 3 3 4
5 5 4 4 4 4 4 3 3 1 2 2 2 5 7 8 7 5 4 3 3 3 2 2 2 2 2 2 2 2 2 2 2 3 4 3 2 2 3 2 3 2 2 3 2 2 3 3 4
5 5 4 5 5 4 4 3 2 2 2 2 4 6 6 6 5 4 3 3 3 3 3 2 1 2 2 2 2 2 2 2 3 3 3 4 3 3 2 2 2 3 2 2 2 2 3 3 4
5 6 5 4 4 3 3 2 1 1 2 4 5 5 5 4 3 3 3 3 3 2 3 3 2 1 2 2 2 2 2 2 2 2 3 4 3 2 2 2 2 2 2 2 2 2 2 2 3
6 6 5 3 3 3 3 2 2 2 4 5 5 5 4 3 3 3 2 2 2 2 2 3 2 2 2 2 2 2 2 2 2 2 3 4 3 3 2 2 2 2 2 2 2 3 2 2 3
5 4 4 3 1 2 5 2 2 2 4 4 4 4 4 3 3 2 2 2 1 2 3 3 2 2 2 2 2 2 2 2 2 2 2 3 3 3 2 2 2 3 2 2 2 2 2 2 2
5 3 3 3 2 2 4 2 2 2 4 5 4 4 4 4 3 2 2 1 1 1 2 3 3 2 2 2 2 2 2 2 2 2 2 3 3 3 2 2 2 3 2 2 2 2 2 2 3
2 3 2 2 1 3 4 4 3 3 5 5 5 5 5 4 3 2 2 2 2 2 2 2 3 2 2 2 2 2 2 1 2 2 2 3 3 3 2 2 3 3 2 2 2 2 2 2 2
2 3 3 1 0 3 4 4 4 3 5 5 4 4 4 4 4 3 3 3 3 3 3 3 2 2 2 2 1 1 1 1 1 1 2 2 2 3 3 2 2 2 2 2 2 2 2 1 1
4 5 3 1 1 4 5 6 5 4 5 5 5 5 5 4 4 4 3 3 2 3 2 3 2 2 1 1 1 1 1 1 1 1 2 2 2 2 2 2 2 2 2 2 2 2 1 1 1
5 5 4 3 2 4 5 6 5 5 5 5 5 5 4 5 5 4 3 3 2 2 2 2 2 2 2 1 1 1 2 1 1 1 1 1 2 1 2 2 2 2 1 1 1 1 1 1 1
3 2 4 4 6 3 4 5 3 4 5 6 6 6 5 5 5 4 3 3 3 2 2 3 3 2 2 2 2 2 1 1 1 1 1 1 1 1 1 1 1 1 1 1 1 1 1 1 1
2 1 3 4 6 6 5 7 2 4 5 6 7 7 7 6 6 5 4 3 3 3 2 2 2 2 2 2 2 1 1 0 1 1 1 1 1 1 1 1 1 1 1 1 2 2 2 1 1
2 3 4 5 6 7 4 7 3 2 3 3 5 6 6 7 7 6 5 4 3 3 3 2 2 2 2 2 2 2 1 1 1 0 1 1 1 1 1 1 1 1 1 1 1 1 1 1 1
4 5 4 4 5 3 1 6 4 2 1 3 3 4 5 6 6 6 6 5 4 3 3 3 2 2 2 2 1 1 1 2 2 1 1 1 1 1 1 1 2 1 1 1 1 1 1 1 1
4 5 5 5 5 3 3 6 1 2 1 2 3 3 5 6 6 6 5 5 4 4 4 3 3 2 2 2 2 1 1 1 1 2 1 1 1 1 1 2 2 2 2 1 1 1 1 1 2
3 3 4 6 7 7 5 3 3 2 2 3 4 4 5 5 5 5 5 5 5 5 5 4 3 3 3 2 2 2 2 2 2 2 2 1 1 1 1 2 2 2 2 2 2 2 2 2 2
4 2 4 5 5 7 6 6 4 3 3 3 4 4 4 4 5 5 5 5 5 5 4 4 4 3 3 2 2 1 2 2 2 2 2 2 2 2 2 2 2 2 3 3 3 3 3 3 2
4 5 5 4 4 6 7 3 2 2 2 3 4 4 4 4 4 5 5 5 5 5 4 4 4 3 3 2 2 2 2 2 2 2 3 3 3 2 3 3 3 3 3 3 3 4 4 4 3
6 6 6 6 5 6 8 5 2 2 2 3 4 4 4 4 4 4 4 5 5 5 5 4 4 4 3 3 2 2 2 2 2 2 3 3 3 3 3 3 3 3 4 4 4 4 4 5 4
Wind_Direction
211 221 240 242 191 99 83 79 84 88 72 63 63 65 65 48 33 57 67 78 68 78 81 92 67 57 62 64 63 61 61 61 62 66 69 70 72 72 72 73 74 75 73 71 71 69 75 78 77
304 234 233 246 151 110 91 91 87 77 91 97 78 71 71 66 52 70 87 87 85 81 76 73 68 61 62 64 62 59 59 60 62 64 67 69 68 67 68 69 68 69 67 65 68 67 72 76 76
165 264 289 93 85 86 102 97 96 91 98 96 86 61 50 51 47 67 75 108 103 86 76 77 64 63 63 63 62 59 58 60 62 62 63 65 65 64 64 66 65 64 62 60 61 65 73 73 73
227 204 152 99 91 75 92 108 114 115 95 77 97 88 76 47 36 67 88 106 100 87 78 77 61 62 64 63 61 60 57 57 59 61 62 63 63 62 60 59 59 59 60 60 61 67 76 75 75
245 195 122 108 95 91 90 97 116 107 96 89 98 97 88 64 65 87 98 97 92 85 78 79 68 62 62 63 59 59 58 56 57 60 61 61 61 60 57 55 55 54 54 57 58 67 73 73 75
184 178 135 117 108 104 102 104 113 103 104 97 100 103 93 86 89 97 101 99 92 89 85 88 86 68 63 62 60 58 57 55 56 58 60 59 60 59 55 54 51 48 49 54 57 66 68 68 75
99 109 115 121 121 116 104 101 93 98 96 83 95 109 113 106 99 110 109 102 93 89 87 85 93 98 92 74 62 59 56 54 54 55 56 57 59 58 55 55 48 48 51 54 57 66 68 67 78
14 131 128 129 132 115 112 114 85 70 83 84 97 109 121 124 129 130 121 111 102 93 88 81 82 81 87 93 77 64 58 54 55 54 51 52 66 69 62 60 53 53 55 56 56 66 70 69 77
244 154 133 129 132 122 134 133 104 92 109 103 87 74 94 127 142 143 132 122 110 96 88 88 85 79 77 75 83 86 79 62 66 73 60 44 60 67 71 56 52 53 55 59 59 59 66 79 95
156 132 110 103 116 127 134 125 127 147 131 121 119 109 120 144 157 154 146 139 127 115 103 91 89 83 78 73 81 70 71 69 51 54 60 46 48 50 47 68 55 56 60 67 62 59 70 50 81
97 108 115 117 118 131 134 120 128 157 129 122 139 145 151 159 166 165 156 143 130 124 112 110 92 84 75 77 64 59 53 50 41 38 49 44 50 56 50 60 72 64 56 60 69 62 47 51 56
109 100 115 120 125 141 140 135 114 88 42 58 128 151 161 171 172 172 166 156 153 141 134 121 102 88 79 75 68 56 48 43 41 33 39 38 37 36 40 37 41 37 36 41 35 23 45 50 60
120 112 109 115 125 132 134 135 114 86 50 102 131 154 168 175 175 170 168 168 165 150 145 146 138 118 96 85 67 66 55 41 53 37 30 40 36 31 36 39 35 25 22 27 31 20 38 46 48
112 122 123 126 134 144 149 146 162 114 133 138 145 153 162 166 173 172 172 182 178 164 152 146 142 123 108 92 80 68 62 57 44 42 32 41 38 32 29 32 31 21 11 11 23 42 43 46 50
137 136 134 131 146 153 188 167 164 158 168 163 162 160 161 166 176 189 184 195 185 172 157 148 145 139 116 95 83 71 66 66 56 47 34 43 33 26 31 25 26 16 7 14 34 52 46 50 55
167 178 167 134 175 191 237 213 122 156 186 180 174 165 169 174 182 182 189 195 178 179 169 151 151 162 137 114 101 92 81 67 59 51 35 38 32 33 31 26 20 12 13 22 50 54 58 58 47
192 200 188 158 159 218 235 237 151 186 205 203 197 187 180 174 181 174 182 172 156 168 172 160 159 165 142 127 119 97 85 73 56 51 40 31 31 28 39 22 13 15 16 22 32 47 47 59 50
200 221 219 216 131 234 235 238 219 207 219 220 212 206 192 178 169 155 159 153 146 144 143 149 160 161 146 142 127 107 85 76 63 50 42 35 22 22 31 21 12 20 18 19 20 43 41 50 49
250 245 252 296 114 255 251 255 251 216 219 228 212 203 193 178 150 135 136 136 138 141 141 127 140 134 144 146 151 138 125 101 82 50 37 38 28 18 25 10 9 18 19 14 11 33 48 40 11
227 241 251 193 193 266 263 264 250 225 221 227 223 200 190 174 154 135 130 133 138 138 136 130 132 115 122 123 166 149 101 83 74 55 38 31 24 20 13 12 7 13 11 17 19 24 13 12 331
234 255 271 288 270 235 264 249 213 199 203 209 215 208 192 184 174 155 146 126 119 130 132 131 132 124 118 129 132 125 121 123 105 94 67 29 22 22 28 18 4 355 346 359 356 353 4 332 331
250 279 267 259 263 255 264 282 211 192 202 208 206 200 197 189 183 168 156 138 132 137 137 140 133 125 125 130 128 154 150 125 63 30 49 39 24 12 25 10 359 351 346 348 326 334 321 312 293
323 286 241 253 265 267 236 266 239 188 223 219 208 200 197 191 186 178 167 157 150 143 143 143 135 124 126 129 125 165 154 104 85 63 50 19 26 3 4 348 315 323 334 338 341 336 330 312 304
160 198 199 224 248 256 251 260 272 208 241 230 199 196 196 193 189 185 174 168 164 151 147 150 151 140 142 152 158 166 168 180 135 56 15 344 360 337 349 320 296 281 296 299 313 306 303 297 297
224 255 247 233 229 254 184 258 274 8 305 250 222 199 196 192 189 188 186 181 177 167 163 171 173 171 177 190 196 201 201 217 205 230 285 306 313 324 338 321 307 310 307 277 271 249 255 259 272
234 262 278 288 286 287 223 252 293 52 359 246 222 205 201 193 193 195 196 190 188 186 187 193 191 192 200 219 232 241 234 257 252 251 258 260 272 289 303 299 301 298 291 278 262 256 248 254 257
225 233 305 292 289 278 248 247 246 192 226 222 217 207 201 198 201 204 204 200 199 198 200 204 203 203 209 222 234 248 248 256 257 254 252 256 271 279 265 265 278 285 281 270 262 260 259 269 264
291 243 231 254 281 276 268 256 255 231 233 228 229 225 215 208 210 212 209 206 204 205 205 206 213 212 214 220 228 239 250 254 268 258 252 259 266 275 268 266 261 259 264 264 256 256 261 259 265
198 215 241 253 265 280 284 281 30 292 284 256 252 243 235 229 226 219 213 208 204 205 203 206 209 214 214 217 225 231 251 251 255 253 251 258 263 264 268 276 276 266 258 256 252 255 253 257 259
253 249 242 255 254 256 279 284 77 309 301 279 269 255 242 232 230 223 215 208 204 205 205 208 212 213 215 221 227 229 245 242 245 258 257 257 262 261 264 272 273 271 269 264 258 256 254 254 258